Regional Weather Roundup
Issued by NWS Jackson, KY

Home | Current Version | Previous Version | Graphics & Text | Print | Product List | Glossary On
Versions: 1 2 3 4 5 6 7 8 9 10 11 12 13 14 15 16 17 18 19 20 21 22 23 24 25 26 27 28 29 30 31 32 33 34 35 36 37 38 39 40 41 42 43 44 45 46 47 48 49 50
000
ASUS43 KJKL 201610
RWRJKL

EAST KENTUCKY HOURLY WEATHER ROUNDUP
NATIONAL WEATHER SERVICE JACKSON KY
1200 PM EDT SAT SEP 20 2014

NOTE: "FAIR" INDICATES FEW OR NO CLOUDS BELOW 12,000 FEET WITH
NO SIGNIFICANT WEATHER AND/OR OBSTRUCTIONS TO VISIBILITY.

* THESE REPORTS ARE NOT UNDER NWS QUALITY CONTROL AND MAY NOT
  REPORT WEATHER SUCH AS PRECIPITATION AND FOG.

KYZ079-080-083-085-087-088-110-112-115-119-120-201700
...EASTERN KENTUCKY...

CITY           SKY/WX    TMP DP  RH WIND       PRES   REMARKS
JACKSON        CLOUDY    73  61  65 VRB3      30.17F
LONDON         PTSUNNY   75  60  59 S9        30.18F
SOMERSET*      SUNNY     73  61  64 SE7       30.17F
MONTICELLO*    SUNNY     80  63  56 S8        30.17F
WILLIAMSBURG*  SUNNY     73  63  68 S6        30.18F
MIDDLESBORO*   SUNNY     75  60  61 CALM      30.19F
HARLAN APT*    SUNNY     75  59  57 MISG      30.19F
HAZARD APT*    PTSUNNY   77  61  57 S6        30.17F
BLACK MTN*       N/A     66  57  72 S2          N/A
PIKEVILLE APT* PTSUNNY   73  63  68 S6        30.18F
BIG SANDY*     CLOUDY    76  62  61 S6        30.17F
MOREHEAD APT*  SUNNY     75  61  60 SW13G18   30.16F
$$

KYZ035-036-041-042-044-050-067-078-099-201700
...CENTRAL KENTUCKY...

CITY           SKY/WX    TMP DP  RH WIND       PRES   REMARKS
MT STERLING*   SUNNY     75  61  60 W12G18    30.15F
FLEMING/MASON* MOSUNNY   77  63  61 SW14      30.13S
DANVILLE*      PTSUNNY   77  61  57 SW12G18   30.15F
RICHMOND*      SUNNY     75  59  57 SW10G17   30.14F
LEXINGTON      MOSUNNY   80  63  55 SW10      30.13F
FRANKFORT      MOSUNNY   76  63  64 SW16G24   30.11F
$$

KYZ091>093-OHZ055-061-077-WVZ005-015-034-035-042-201700
...SOUTHERN OHIO/WEST VIRGINIA...

CITY           SKY/WX    TMP DP  RH WIND       PRES   REMARKS
COVINGTON      PTSUNNY   76  65  68 SW10G20   30.09F
COLUMBUS       CLOUDY    77  61  57 SW12      30.07F
DAYTON         PTSUNNY   75  63  66 SW12      30.08S
WILMINGTON     PTSUNNY   75  63  66 SW17G25   30.08F
HUNTINGTON     MOSUNNY   74  61  63 S12       30.13F
CHARLESTON     MOSUNNY   76  60  57 S9        30.15F
PINEVILLE*     SUNNY     77  63  62 MISG      30.25F
BECKLEY        SUNNY     71  56  58 S5        30.24F
BLUEFIELD      SUNNY     71  54  54 VRB6      30.26F
$$

VAZ002-007-008-TNZ017-027-036-066-071-201700
...SOUTHWEST VIRGINIA/EAST TENNESSEE...

CITY           SKY/WX    TMP DP  RH WIND       PRES   REMARKS
WISE*          SUNNY     72  54  53 S8        30.25F
JONESVILLE*    SUNNY     75  59  57 SE5       30.22F
ABINGDON*      SUNNY     74  56  52 S5        30.23F
BRISTOL        SUNNY     75  53  46 MISG      30.21F
KNOXVILLE      MOSUNNY   75  59  57 E3        30.17F
OAK RIDGE      SUNNY     77  60  55 W5        30.19F
CROSSVILLE     SUNNY     75  58  55 S8        30.21F
NASHVILLE      MOSUNNY   81  63  54 S12       30.14F
$$

...KEY TO REMARKS...
VSB - VISIBILITY IN MILES
WCI - WIND CHILL INDEX
HX  - HEAT INDEX

$$



USA.gov is the U.S. government's official web portal to all federal, state and local government web resources and services.